FloripaSat 1
1 44885U 19093G   25183.78440277  .00004583  00000-0  38591-3 0  9998
2 44885  97.8152 271.4336 0012385 125.9373 234.3000 14.98664633300227
RS-44
1 44909U 19096E   25183.53889120  .00000008  00000-0 -45089-5 0  9996
2 44909  82.5197 212.0245 0216372 241.7597 116.1512 12.79741519257627
UPMSat 2
1 46276U 20061E   25183.18330107  .00056634  00000-0  44195-3 0  9996
2 46276  97.2420 258.3707 0002306 151.7868 208.3521 15.71513391269015
SALSAT
1 46495U 20068K   25183.48199441  .00005767  00000-0  24803-3 0  9998
2 46495  97.8613 162.5732 0013112  84.6315 275.6416 15.22994314262017
CubeSX-Sirius-HSE
1 47951U 21022V   25157.62701764  .07883385  25648-5  89537-3 0  9993
2 47951  97.4004  72.1904 0010275 223.9924 136.0557 16.36879307233400
CubeSX-HSE
1 47952U 21022W   25157.69972699  .06655353  25454-5  93288-3 0  9992
2 47952  97.3980  72.5414 0010307 219.3637 140.6911 16.34906352233436
GRBAlpha
1 47959U 21022AD  25160.45426279  .07940347  25506-5  90589-3 0  9995
2 47959  97.3899  75.6235 0011032 227.2558 132.7812 16.36806138232695
TUBIN
1 48900U 21059X   25183.79448390  .00033278  00000-0  37809-3 0  9994
2 48900  97.6762 354.9411 0004264 143.7217 216.4330 15.62260633223660
LEDSAT
1 49069U 21073D   25183.75076771  .00059576  00000-0  64030-3 0  9998
2 49069  97.3874 266.3056 0006956 351.3567   8.7570 15.63549794215055
CUTE
1 49263U 21088D   25183.18665155  .00013089  00000-0  25443-3 0  9991
2 49263  97.4500 260.1083 0009187 152.4750 207.6988 15.47699676207920
TeikyoSat 4
1 49396U 21102B   25183.58112213  .00001879  00000-0  12681-3 0  9995
2 49396  97.4089 221.1786 0013855  59.3138 300.9454 15.07721117200018
Z-Sat
1 49399U 21102E   25183.80945917  .00003447  00000-0  18963-3 0  9990
2 49399  97.3786 224.6389 0018677  28.8884 331.3378 15.14571695200494
KOSEN 1
1 49402U 21102H   25183.63953042  .00004864  00000-0  22475-3 0  9991
2 49402  97.3690 228.0647 0015569   5.0947 355.0444 15.20543356200792
HO-113
1 50466U 21131B   25183.88598220  .00000409  00000-0  14139-3 0  9994
2 50466  98.5107 273.1252 0005312  73.7957 286.3816 14.40836712184805
Foresail-1
1 52766U 22057AL  25176.64799660  .13857605  27391-5  25307-3 0  9992
2 52766  97.5832 331.2310 0012137 233.7199 258.4922 16.46795272172486
SNUGLITE 2
1 52899U 22065F   25183.39820751  .00000765  00000-0  15765-3 0  9997
2 52899  98.1716 325.1530 0008480  49.3992 310.7946 14.63255841159826
UmKA 1 (RS40S)
1 57172U 23091G   25183.84873666  .00004374  00000-0  23374-3 0  9994
2 57172  97.5565 239.1112 0012824 251.3772 108.6068 15.15558266111000
CubeBel-2 (EU11S)
1 57175U 23091K   25183.88246048  .00007069  00000-0  33412-3 0  9997
2 57175  97.5566 240.4348 0010472 258.0046 102.0015 15.19670577111098
VERONIKA
1 58261U 23174F   25183.79377720  .00178424  00000-0  10732-2 0  9991
2 58261  97.4095 271.4789 0004539 259.5182 100.5572 15.77204648 92330
ENSO
1 58470U 23185J   25183.83827102  .00047625  00000-0  63278-3 0  9996
2 58470  97.3721 259.7403 0004973   2.3524 357.7754 15.58059925 88658
EIRSAT-1
1 58472U 23185L   25183.84768267  .00118082  00000-0  88884-3 0  9991
2 58472  97.3658 262.0957 0002040 330.3752  29.7395 15.72173180 88811
SONATE-2
1 59112U 24043Q   25183.35974300  .00011063  00000-0  31349-3 0  9995
2 59112  97.5161 315.0077 0011333  39.8058 320.4015 15.36373948 73831
MO-122
1 60209U 24125G   25183.56421705  .00013299  00000-0  36975-3 0  9997
2 60209  97.2776  34.9325 0019718  58.7531 301.5642 15.36777624 55489
GRBBeta
1 60237U 24128C   25183.82575014  .00003496  00000-0  26762-3 0  9994
2 60237  61.9925 358.4964 0053614  62.6924 297.9612 15.02802597 53697
Curium One
1 60242U 24128H   25183.62377682  .00005862  00000-0  40854-3 0  9996
2 60242  61.9826 357.1491 0053466  58.8679 301.7642 15.05396673 53708
ROBUSTA-3A
1 60243U 24128J   25183.83297974  .00005837  00000-0  41248-3 0  9995
2 60243  61.9899 357.3228 0052486  56.6206 303.9893 15.04925238 53720
CatSat
1 60246U 24125J   25183.57365970  .00007725  00000-0  25538-3 0  9990
2 60246  97.2578  33.8921 0042355  14.7020 345.5442 15.30751934 53505
HYPERVIEW-1G (RS66S)
1 61772U 24199AP  25183.86989793  .00016487  00000-0  46671-3 0  9999
2 61772  97.3508  52.6880 0015297 108.1836 252.1075 15.36247806 80537
AO-123
1 61781U 24199AY  25183.88596335  .00005286  00000-0  19181-3 0  9998
2 61781  97.3523  51.3363 0017432 113.1555 247.1523 15.28610362 80447
ZIMSAT 2
1 61783U 24199BA  25183.90409450  .00032282  00000-0  75303-3 0  9998
2 61783  97.3482  53.5213 0015104 105.6262 254.6653 15.42046564 83742
HADES-R (SO-124)
1 62690U 25009CK  25183.50303463  .00027398  00000-0  93078-3 0  9991
2 62690  97.4084 264.2395 0002305  47.9731 312.1705 15.30445976 25650
HYDRA-T
1 62692U 25009CM  25183.15759560  .00024791  00000-0  83585-3 0  9993
2 62692  97.4085 263.9375 0001966  46.6976 313.4428 15.30713030 25606
JINJUSat 1B
1 63210U 25052A   25183.62347891  .00007615  00000-0  34596-3 0  9994
2 63210  97.4390  77.4580 0002668 219.4984 140.6058 15.21046129 16750
NUSHSAT 1
1 63211U 25052B   25183.61462347  .00008860  00000-0  39876-3 0  9997
2 63211  97.4380  77.4559 0002522 228.7759 131.3260 15.21318034 16757
TEVEL2-4
1 63213U 25052D   25183.69863864  .00008725  00000-0  39635-3 0  9999
2 63213  97.4300  77.3800 0001409 256.0039 104.1040 15.21006162 16768
TEVEL2-5
1 63214U 25052E   25183.63374281  .00008733  00000-0  39695-3 0  9999
2 63214  97.4299  77.3144 0001411 258.0046 102.1032 15.20982784 16750
TEVEL2-6
1 63215U 25052F   25183.24174444  .00008139  00000-0  37073-3 0  9994
2 63215  97.4298  76.9228 0001434 262.7725  97.3348 15.20934318 16697
TEVEL2-1
1 63217U 25052H   25183.45348409  .00008314  00000-0  38102-3 0  9992
2 63217  97.4274  77.0634 0001726 292.7918  67.3135 15.20714974 16726
TEVEL2-2
1 63218U 25052J   25183.25637130  .00008056  00000-0  36937-3 0  9990
2 63218  97.4274  76.8696 0001727 295.5543  64.5514 15.20712724 16695
TEVEL2-3
1 63219U 25052K   25183.45397977  .00008170  00000-0  37458-3 0  9991
2 63219  97.4274  77.0633 0001711 294.6420  65.4637 15.20709661 16723
TEVEL2-8
1 63237U 25052AD  25183.60346140  .00008013  00000-0  38040-3 0  9998
2 63237  97.4336  77.1077 0006312 302.1507  57.9114 15.19495938 16732
TEVEL2-9
1 63238U 25052AE  25182.94817489  .00007839  00000-0  37300-3 0  9997
2 63238  97.4337  76.4575 0006394 305.0122  55.0512 15.19421244 16633
TEVEL2-7
1 63239U 25052AF  25183.60920594  .00007846  00000-0  37357-3 0  9994
2 63239  97.4338  77.1013 0006403 302.4487  57.6128 15.19398435 16733
HYDRA-W
1 63490U 25052BL  25183.59585062  .00019805  00000-0  81348-3 0  9995
2 63490  97.4289  77.5031 0009427 295.4668  64.5594 15.24195462 16760
HADES-ICM (SO-125)
1 63492U 25052BN  25183.68331688  .00017507  00000-0  72993-3 0  9993
2 63492  97.4291  77.5469 0009712 299.4731  60.5537 15.23714856 16779
